Temp
15 13 13 14 13 16 17 17 16 16 18 19 16 9 9 7 6 5 4 3 3 3 3 3 2 1 1 0 -0 -1 -0 -0 -0 -0 0 1 3 4 4 5 6 7 9 10
14 12 15 15 15 15 15 15 15 16 17 17 12 9 7 8 6 5 4 3 3 3 3 2 2 1 0 -1 -1 -0 -0 -0 -0 -0 0 1 1 3 4 4 5 6 8 9
14 16 16 16 15 15 15 15 16 16 17 17 12 10 8 8 6 6 4 4 3 2 1 1 1 0 -0 -1 -1 -1 -1 -1 -1 -0 0 1 1 2 4 5 5 6 7 8
14 16 16 16 15 15 14 16 17 17 15 14 15 14 9 8 6 5 4 2 1 2 2 1 1 -0 -1 -1 -1 -1 -1 -1 -1 -1 -0 -0 1 2 3 4 5 6 7 8
14 17 16 15 16 17 16 17 16 15 14 13 14 13 10 8 7 5 4 3 2 1 1 0 -0 -1 -1 -1 -1 -2 -1 -1 -1 -1 -1 -0 0 2 3 4 5 6 6 7
14 16 16 15 17 17 17 16 15 13 12 12 13 14 11 7 7 5 5 4 3 1 0 -0 -1 -2 -1 -1 -2 -2 -2 -2 -2 -1 -1 -1 0 1 2 4 5 6 7 8
15 15 16 16 15 16 16 14 11 11 10 13 15 14 11 6 5 4 3 3 3 -0 -1 -2 -2 -2 -2 -2 -2 -2 -2 -2 -2 -2 -1 -1 -0 0 1 3 4 5 6 8
12 12 15 16 15 15 14 15 14 13 13 13 15 13 8 6 5 4 3 3 3 -1 -2 -2 -2 -2 -2 -2 -2 -2 -2 -2 -2 -2 -2 -1 -1 -1 0 1 1 3 4 5
11 13 16 16 16 17 14 14 15 15 13 11 11 8 7 6 5 4 3 3 1 0 -3 -3 -2 -3 -2 -2 -3 -3 -3 -3 -3 -2 -2 -2 -2 -2 -1 -1 -1 0 1 3
13 12 15 16 17 17 16 15 14 11 13 12 9 9 9 6 5 3 -0 -0 2 0 -3 -3 -3 -3 -2 -2 -3 -3 -3 -3 -3 -3 -2 -2 -2 -3 -2 -2 -2 -1 -0 1
13 11 13 14 15 15 15 14 14 14 12 11 7 9 7 7 5 2 -0 2 1 -2 -5 -5 -3 -2 -2 -2 -3 -3 -3 -3 -3 -3 -3 -2 -3 -3 -3 -3 -3 -3 -2 -1
12 10 8 13 16 17 14 14 12 11 12 12 7 7 5 4 3 2 1 2 0 -2 -5 -4 -3 -2 -2 -2 -3 -3 -3 -4 -3 -3 -3 -3 -3 -3 -4 -4 -4 -4 -3 -2
12 9 11 12 13 15 13 13 13 12 11 11 9 9 5 4 3 2 1 2 -0 -2 -4 -5 -3 -3 -2 -2 -3 -3 -3 -4 -4 -4 -3 -4 -3 -4 -4 -5 -5 -5 -4 -4
13 12 11 9 10 12 12 13 11 11 11 9 8 6 5 4 3 2 2 2 -2 -3 -3 -4 -4 -2 -2 -2 -2 -3 -3 -3 -4 -4 -4 -4 -4 -4 -5 -6 -6 -6 -5 -5
12 11 10 11 11 11 10 10 10 9 10 9 8 8 5 5 4 2 2 0 -0 -0 -1 -1 -3 -3 -2 -2 -2 -3 -3 -4 -4 -4 -5 -5 -5 -5 -5 -6 -7 -7 -7 -6
10 9 9 8 10 10 9 8 9 10 10 9 8 7 4 3 2 2 1 1 -0 -0 -1 -1 -2 -2 -2 -2 -2 -3 -3 -4 -4 -4 -5 -5 -6 -6 -6 -6 -7 -8 -8 -8
9 9 9 10 9 10 9 8 8 8 9 9 8 8 2 2 2 2 1 0 0 -0 -1 -2 -3 -2 -2 -2 -2 -3 -3 -4 -4 -5 -5 -6 -6 -6 -7 -7 -7 -8 -8 -8
9 9 10 10 9 9 9 8 8 9 9 7 6 3 3 3 1 -0 -1 0 0 -1 -1 -1 -2 -2 -2 -2 -2 -2 -3 -4 -5 -5 -6 -6 -7 -7 -7 -8 -8 -9 -9 -9
12 10 9 10 10 10 9 9 8 8 9 6 5 3 1 0 0 -0 -0 -1 -1 -1 -1 -1 -1 -2 -2 -2 -2 -3 -3 -4 -5 -6 -6 -7 -7 -8 -8 -8 -9 -9 -9 -9
11 11 9 9 10 10 10 10 9 10 8 5 4 2 1 1 1 -1 -0 -1 -1 -0 -1 -1 -2 -2 -2 -2 -2 -3 -4 -4 -5 -5 -6 -6 -7 -7 -8 -8 -9 -9 -9 -10
10 9 9 10 10 10 10 9 10 9 8 5 4 2 1 2 1 -1 -0 -1 -1 -1 -2 -2 -2 -3 -3 -3 -3 -4 -4 -5 -5 -5 -6 -6 -7 -7 -8 -8 -9 -9 -9 -9
9 9 9 8 9 9 9 9 9 7 5 4 3 2 2 -0 -1 -0 -1 -2 -1 -1 -2 -2 -3 -4 -4 -3 -3 -4 -5 -5 -5 -5 -6 -6 -7 -7 -7 -8 -8 -9 -10 -10
9 9 9 9 8 6 6 8 7 6 4 3 3 2 1 -0 -0 -0 -1 -1 -0 -1 -2 -3 -4 -5 -5 -4 -4 -5 -5 -5 -5 -6 -6 -7 -7 -7 -7 -8 -8 -9 -9 -10
9 9 6 7 5 6 7 6 5 5 4 3 3 2 1 -0 -0 0 0 0 -0 -2 -3 -4 -4 -5 -6 -5 -5 -5 -5 -5 -6 -6 -7 -7 -7 -7 -7 -7 -8 -8 -9 -10
8 8 5 5 5 6 6 6 3 2 2 2 2 1 1 1 1 1 1 0 -1 -2 -3 -4 -5 -6 -6 -6 -6 -6 -6 -6 -7 -7 -7 -7 -7 -7 -8 -8 -8 -8 -9 -9
7 6 5 5 5 6 5 3 2 2 1 1 1 1 1 2 2 1 1 -0 -1 -2 -3 -4 -5 -6 -7 -7 -7 -7 -6 -6 -7 -7 -7 -7 -8 -8 -8 -8 -8 -9 -9 -9
Height
806 817 818 810 814 808 805 807 811 804 793 791 800 827 829 831 831 835 837 837 834 831 828 824 820 816 811 808 802 797 793 788 782 775 768 763 758 754 749 745 743 740 738 738
812 817 800 799 804 810 811 813 812 803 794 794 812 826 832 830 836 839 840 839 836 831 824 821 817 813 810 805 800 796 793 788 783 779 772 766 758 751 746 741 736 733 732 732
810 797 792 797 799 807 808 810 806 804 794 794 810 821 827 829 834 836 839 841 839 832 827 824 819 817 812 809 804 801 797 790 783 777 769 762 755 748 742 737 731 728 726 724
804 794 792 794 798 800 806 796 796 799 807 816 800 806 819 824 833 837 839 840 836 833 831 828 823 817 813 809 805 801 797 789 782 775 766 759 752 744 738 733 726 721 718 716
798 789 790 794 791 787 790 787 794 797 806 808 806 813 812 821 826 834 837 838 838 837 833 828 825 824 819 815 810 805 798 789 780 772 765 757 749 742 734 727 721 715 709 707
794 785 788 790 780 782 783 789 795 805 810 818 803 801 797 821 816 829 833 836 837 837 834 830 828 827 821 817 814 807 797 787 777 769 763 756 748 739 730 724 717 710 704 699
790 787 781 782 787 781 786 796 821 822 832 802 787 797 795 823 824 827 833 835 835 841 836 831 829 826 822 820 814 805 795 785 779 772 764 756 747 738 729 721 714 708 702 695
798 798 782 773 779 781 785 786 798 806 804 801 787 793 810 822 825 829 831 831 835 839 837 834 832 829 827 822 813 805 796 790 781 774 766 758 747 738 729 721 716 710 701 696
804 789 770 770 770 772 783 784 778 789 792 808 801 818 819 822 825 829 829 831 836 837 838 836 833 831 828 820 814 807 801 793 785 778 767 757 749 741 732 723 717 709 706 699
785 795 776 769 762 761 766 771 787 801 794 797 817 815 806 816 819 828 836 837 835 835 838 835 833 831 827 821 815 810 803 797 790 781 772 766 756 745 735 728 720 713 709 705
782 793 783 776 773 774 772 774 778 780 790 801 833 810 803 801 812 827 836 832 835 837 838 836 836 833 827 823 817 812 806 800 792 785 776 770 758 749 740 735 727 720 718 711
781 794 808 780 769 767 775 775 779 798 785 785 819 814 812 814 819 824 830 831 835 838 838 839 838 833 828 824 819 814 810 805 797 790 781 775 763 753 745 739 734 732 727 719
777 799 791 784 780 768 778 780 781 782 785 788 802 799 814 818 822 825 828 829 836 837 840 840 837 832 830 826 822 817 812 807 801 796 787 779 769 759 753 747 745 742 734 733
768 778 783 802 792 781 777 772 785 788 784 797 800 806 811 816 820 826 828 829 838 841 842 841 837 833 833 829 824 820 815 811 806 800 793 786 779 773 768 763 757 747 746 743
770 777 787 780 784 784 788 788 787 791 783 788 791 792 800 803 810 822 823 831 836 839 841 840 837 834 834 830 827 825 819 816 811 806 801 798 793 787 782 777 772 765 762 748
776 785 792 792 784 784 788 791 785 780 780 782 788 790 801 804 813 818 822 830 834 837 838 838 836 835 836 833 831 829 824 820 816 810 807 806 801 795 787 784 780 776 770 765
783 788 790 778 781 782 784 782 782 780 778 776 786 781 803 809 809 816 823 827 831 836 839 838 835 837 838 836 833 831 828 826 821 817 813 811 807 802 797 792 788 783 776 771
779 785 781 778 783 782 769 774 774 773 772 777 783 794 793 799 811 819 823 824 830 836 837 838 836 836 839 838 836 833 832 830 827 823 818 816 813 808 803 800 796 791 787 782
763 776 778 775 775 767 770 770 775 774 769 774 780 791 802 810 817 823 822 824 829 835 836 837 837 838 839 839 838 836 835 833 832 829 826 823 819 814 811 806 804 802 798 794
760 762 775 777 767 768 765 763 764 761 777 774 780 793 802 807 814 817 818 823 830 833 834 836 838 839 840 840 840 838 838 837 835 834 832 829 825 822 818 816 811 808 805 804
763 769 766 765 766 764 758 760 761 772 774 776 780 789 797 800 804 806 813 824 830 833 834 836 838 840 842 842 841 840 840 840 839 837 836 834 831 829 826 824 821 817 812 809
757 762 764 772 768 769 759 764 768 768 772 776 783 788 794 800 804 809 814 824 829 833 836 837 839 841 843 843 842 842 842 843 843 841 839 838 835 834 831 828 826 823 821 818
757 753 760 761 765 767 765 763 764 766 772 778 782 788 793 800 805 810 817 823 827 831 835 837 839 842 843 844 844 844 845 844 844 844 843 842 840 837 834 831 828 825 824 823
750 752 766 765 770 766 764 765 766 767 771 775 778 785 792 799 806 811 817 821 826 831 835 838 839 842 844 845 845 846 847 847 846 847 846 844 842 840 838 836 834 832 831 830
752 754 766 771 769 766 764 765 769 773 774 777 782 787 792 798 806 810 816 821 826 831 835 838 840 842 845 847 847 848 848 849 849 848 847 844 844 843 842 842 841 839 837 836
750 759 766 766 757 759 762 766 771 774 778 781 784 791 796 798 805 812 818 822 827 831 835 839 841 843 845 847 848 849 849 849 849 848 849 848 848 846 845 844 843 842 841 841
Wind_Speed
1 3 6 10 7 2 1 2 5 5 4 2 1 5 3 4 8 8 8 8 8 10 12 20 24 26 28 28 31 30 29 31 33 34 32 31 27 29 29 25 25 33 35 28
1 6 14 5 6 7 6 5 6 5 4 4 5 2 2 3 4 4 5 7 9 12 14 23 28 30 30 31 35 33 33 33 30 28 29 29 30 30 29 30 29 31 29 22
7 6 1 6 4 7 9 6 4 6 2 2 5 3 5 3 5 4 3 2 5 10 15 16 25 27 29 29 32 31 30 31 31 31 31 29 28 26 27 25 26 28 28 25
7 10 14 14 8 7 9 8 7 4 3 5 3 7 4 6 5 2 3 5 7 9 10 14 23 29 31 33 33 32 32 32 31 33 31 29 27 26 27 31 29 31 31 34
8 2 1 4 6 9 9 7 8 6 5 3 3 2 1 8 5 2 3 6 7 7 9 12 20 25 26 28 30 30 30 31 31 33 31 30 27 28 30 28 28 31 32 31
6 2 4 6 4 1 1 4 3 4 3 5 8 9 4 5 4 4 2 4 7 8 11 15 20 21 23 26 27 28 29 31 32 35 34 29 27 30 29 26 26 27 26 25
10 15 13 9 8 3 4 5 1 2 1 7 6 6 4 5 4 4 4 4 6 6 9 10 17 21 23 26 27 28 31 32 33 33 33 33 29 27 27 25 23 22 22 20
4 6 5 3 16 9 7 8 5 6 5 3 2 5 4 3 6 7 6 5 4 6 7 9 16 19 21 24 28 30 32 31 34 33 32 29 29 26 22 22 26 21 19 16
3 5 3 5 5 12 5 9 7 7 1 1 2 4 3 7 6 4 5 5 4 4 6 8 16 18 20 24 27 29 30 30 32 34 32 33 33 31 29 29 26 27 24 14
4 7 5 8 4 6 8 6 3 1 3 4 3 3 4 11 10 6 2 3 2 3 5 7 15 19 20 25 25 27 30 29 31 33 32 30 27 34 33 34 35 34 30 23
5 4 5 7 3 3 1 3 3 1 3 4 1 5 2 10 9 7 4 3 1 3 4 6 17 20 21 23 24 25 30 30 33 35 34 29 31 35 38 36 40 39 31 26
8 4 3 12 15 1 6 3 5 3 4 2 4 5 3 5 7 8 6 5 3 3 4 8 15 18 21 23 26 25 26 27 31 33 34 31 35 37 39 43 41 39 35 29
7 3 6 6 4 3 6 7 4 7 2 6 4 5 3 6 6 6 6 6 4 4 5 6 13 18 20 22 21 25 27 28 29 29 32 36 36 39 41 41 41 34 37 32
6 4 5 6 2 2 3 6 6 7 3 3 5 3 8 10 9 7 6 7 4 1 1 3 6 16 18 20 22 23 25 27 28 29 30 35 37 37 34 35 37 41 34 37
4 5 3 3 9 5 2 3 5 6 3 4 3 6 6 15 13 11 9 7 5 3 2 3 4 11 16 20 21 22 24 25 25 26 28 29 29 28 28 32 32 31 34 38
5 2 2 5 7 5 4 8 10 9 3 7 1 7 4 8 10 9 10 8 6 4 3 2 5 11 12 17 17 19 21 24 24 26 26 24 25 27 30 29 31 31 33 38
2 4 4 3 4 4 5 13 12 4 5 5 7 4 9 7 11 11 10 9 7 5 3 3 5 7 9 12 15 19 20 20 23 24 26 25 25 26 29 29 29 33 36 38
7 5 6 1 2 5 4 2 4 11 4 5 3 6 10 9 6 6 6 8 8 7 5 4 8 10 7 11 14 16 18 20 22 24 27 26 25 27 29 30 30 32 34 36
10 8 2 2 5 4 2 3 5 6 5 8 6 9 9 10 6 1 6 5 6 7 10 9 9 11 9 11 12 16 17 19 18 23 25 26 26 27 29 30 31 31 31 33
8 6 5 2 4 4 3 3 6 4 4 6 10 14 15 11 5 4 10 8 9 10 13 13 13 13 13 12 13 17 17 18 19 17 24 28 28 29 29 28 30 29 31 29
4 2 9 8 3 4 3 5 4 2 4 6 11 15 16 7 3 4 13 10 12 15 16 16 14 14 12 12 13 16 16 17 15 17 17 19 23 26 27 26 25 28 32 36
7 6 3 2 2 5 4 4 6 3 3 6 8 11 12 6 8 13 13 10 15 16 15 15 16 13 11 11 13 14 15 13 14 15 16 17 20 18 23 25 27 27 25 27
2 4 4 5 4 1 2 1 2 3 5 6 8 10 10 11 9 13 11 11 16 17 16 16 16 14 11 11 10 12 10 9 12 13 14 15 16 18 21 23 26 28 27 24
1 1 3 2 2 3 1 3 3 2 4 6 6 13 13 10 13 12 10 11 17 18 17 18 16 13 10 9 10 10 8 7 10 10 11 13 16 18 20 21 19 19 22 22
3 3 4 1 2 2 5 2 5 5 7 9 9 10 12 15 13 13 10 14 17 17 17 17 16 13 11 9 9 9 8 7 9 9 10 14 15 15 15 16 18 17 11 17
3 5 4 4 6 3 3 7 7 8 6 8 13 9 12 16 14 16 12 16 18 17 17 16 15 14 12 11 10 9 10 9 8 9 9 10 10 12 12 11 13 14 14 13
Wind_Direction
201 109 211 215 211 254 3 265 266 268 261 257 312 141 127 51 52 37 26 15 7 1 346 1 359 357 356 358 356 353 347 344 340 333 331 327 320 315 307 303 298 294 292 291
344 230 233 160 186 235 264 256 244 282 264 177 152 137 84 91 73 68 32 12 359 352 1 357 354 355 356 353 353 350 345 339 338 329 322 314 311 306 301 299 295 299 300 291
201 233 55 201 241 219 235 219 224 219 276 291 106 258 195 99 118 96 85 38 359 3 358 350 351 351 351 351 349 342 338 337 336 330 324 319 313 308 305 299 296 293 293 288
244 240 248 261 260 193 242 209 210 205 136 235 146 275 204 166 152 92 66 18 6 5 356 349 351 350 350 348 342 341 338 338 335 333 325 318 310 304 302 297 294 293 287 283
232 218 201 228 238 231 246 181 178 179 191 135 225 296 65 142 193 147 44 29 6 357 354 353 353 348 345 343 343 338 337 338 337 336 332 322 313 306 305 299 298 297 295 286
223 253 196 218 267 53 228 99 56 38 114 256 188 190 233 188 180 145 77 41 12 6 355 352 349 347 345 345 342 338 340 342 342 343 338 329 318 317 310 305 301 301 299 291
260 262 266 240 267 192 155 125 264 300 338 242 208 204 263 168 139 134 109 45 20 12 352 351 346 345 346 345 344 347 348 346 347 346 342 340 336 331 326 326 321 317 315 319
186 309 187 220 212 196 189 180 178 224 218 255 219 239 276 113 132 133 122 90 37 17 356 350 338 339 342 345 349 352 352 348 350 347 347 347 350 345 344 353 348 341 343 335
195 255 258 299 255 200 204 205 192 233 253 140 230 298 222 163 168 147 110 68 35 26 354 340 339 346 346 351 352 354 351 350 353 351 349 359 5 3 4 10 13 12 4 350
230 285 263 301 261 217 175 174 107 357 221 227 270 270 245 204 202 180 134 101 22 36 2 350 343 339 351 355 358 357 359 354 353 357 359 357 11 19 22 22 19 23 17 13
154 151 265 358 343 296 147 152 48 349 150 186 238 257 269 200 171 166 157 119 44 21 3 350 331 346 2 3 6 4 4 359 0 4 5 3 21 27 29 28 26 25 24 21
197 174 199 247 259 196 337 290 118 215 220 188 158 267 6 116 135 143 151 136 89 61 3 336 329 359 6 7 12 10 8 3 7 8 12 9 25 32 34 34 28 26 27 31
174 231 266 316 323 246 196 271 309 222 141 213 183 258 129 136 135 141 143 140 104 42 6 326 344 9 6 11 8 13 15 10 12 11 19 17 20 31 33 34 35 25 32 33
121 162 186 213 205 307 294 216 222 254 200 180 224 200 192 195 179 162 146 132 122 70 327 310 346 16 6 14 18 18 19 15 18 19 25 23 19 31 32 34 33 37 31 37
158 183 153 226 286 262 274 210 229 228 193 179 223 210 209 201 184 174 150 139 157 130 100 23 12 20 13 20 21 22 28 23 22 25 30 26 24 30 35 39 37 39 42 43
360 92 255 228 214 221 258 254 233 232 217 256 261 265 223 126 138 146 149 162 161 141 109 83 44 30 16 28 28 26 31 29 29 31 30 29 31 31 34 36 36 38 46 48
113 156 200 248 203 203 254 228 219 215 221 160 209 206 149 149 158 163 160 162 157 138 140 117 71 39 28 33 41 40 39 37 37 36 36 32 33 37 40 39 37 38 41 45
192 218 228 183 129 238 247 189 212 224 223 183 116 165 167 153 125 139 155 153 150 158 151 121 80 69 58 52 53 58 54 49 42 40 41 38 38 41 42 45 43 41 43 45
197 215 239 208 206 297 266 201 182 181 266 193 157 126 113 116 92 112 154 134 145 168 152 127 101 84 91 71 68 66 63 59 52 45 44 43 44 46 45 43 41 44 46 46
206 193 204 174 227 224 240 199 148 124 296 144 139 151 148 147 167 224 162 137 146 161 149 130 122 95 91 86 78 73 66 64 57 58 54 54 55 56 53 47 47 47 49 49
172 193 213 207 252 281 207 142 114 115 249 153 156 158 159 177 160 149 140 135 155 147 136 134 122 103 93 97 92 76 72 65 69 65 64 57 54 56 60 59 56 53 51 50
174 169 183 148 162 260 137 89 185 181 54 140 145 160 161 112 117 139 136 132 141 137 134 132 117 107 101 100 99 83 71 75 75 73 69 62 60 57 58 58 56 57 54 49
188 176 185 179 208 258 304 299 81 130 140 158 145 158 137 131 143 149 144 147 150 145 138 139 127 115 102 97 95 88 78 87 81 73 72 67 63 59 52 51 50 50 50 47
35 119 104 105 256 199 240 78 69 89 127 138 142 151 146 143 148 146 145 150 150 146 144 145 136 121 101 102 100 94 96 97 95 78 70 68 63 57 53 51 46 48 52 52
200 112 131 348 307 345 266 158 140 94 93 100 118 146 148 143 151 149 148 149 151 151 151 152 143 134 126 117 110 108 114 121 95 81 66 62 58 59 61 59 50 49 61 48
185 162 159 221 196 158 213 146 134 127 122 130 131 125 141 146 149 148 144 151 152 151 149 147 145 141 141 135 122 119 112 110 111 83 66 67 71 67 63 64 64 59 56 49